Location: Melbourne
(37.8666°S, 145.1333°E)
Time: 14:41:59
(UTC+10:00)

Amateur Radio Satellites - All Passes

Search period start: 26 May 2016 14:11
Search period end: 27 May 2016 14:11
Location: Melbourne, 37.8666°S, 145.1333°E

Satellite Date Start Highest point End Downlink Frequencies (MHz)
Time Altitude Azimuth
Cosmos 2491 26 May 14:12:01 14:15:41 13° 104° (ESE) 14:19:22 435.465 / 435.565
SO-50 26 May 14:12:07 14:14:23 14° 223° (SW) 14:16:39 436.795
SWISSCUBE 26 May 14:20:35 14:25:07 41° 279° (W) 14:29:43 437.505
ITUPSAT 1 26 May 14:25:34 14:30:07 41° 279° (W) 14:34:45 437.325
KKS-1 26 May 14:42:40 14:46:45 36° 109° (ESE) 14:50:53 437.445
JAS-2 26 May 14:43:09 14:47:15 21° 246° (WSW) 14:51:36 435.910
MOZHAYETS 4 26 May 14:43:15 14:47:10 27° 111° (ESE) 14:51:07
Oscar 19 26 May 14:43:20 14:47:54 31° 248° (WSW) 14:52:27 437.125/150
RS-15 26 May 14:46:05 14:57:05 90° 124° (SE) 15:08:04 29.354- 29.394
Gurwin Techsat 1B 26 May 14:48:49 14:54:11 68° 254° (WSW) 14:59:28 435.225
BEESAT 26 May 14:51:32 14:55:17 22° 275° (W) 14:59:04 436.000
ISS 26 May 14:57:46 14:59:47 15° 158° (SSE) 15:01:48 145.825
PHONESAT 2.4 26 May 14:58:49 15:01:59 71° 341° (NNW) 15:05:09 2401.200-2431.200
YUBILEINY 26 May 15:11:11 15:20:04 70° 99° (E) 15:28:46 435.215
ITAMSAT 1 26 May 15:19:49 15:25:07 88° 255° (WSW) 15:30:19 435.822/435.867
STARS 26 May 15:23:45 15:28:00 52° 107° (ESE) 15:32:22 437.465
Cosmos 2504 26 May 15:36:49 15:42:59 26° 111° (ESE) 15:48:50 435.465 / 435.565
AO-7 26 May 15:52:20 16:00:35 59° 77° (ENE) 16:08:43 29.400- 29.500
Cosmos 2491 26 May 16:02:16 16:10:58 80° 86° (E) 16:19:48 435.465 / 435.565
HORYU 2 26 May 16:03:18 16:05:54 15° 88° (E) 16:08:30 437.375
CUBESAT XI-V 26 May 16:03:29 16:07:00 21° 113° (ESE) 16:10:31 437.345
MOZHAYETS 4 26 May 16:20:12 16:24:13 28° 276° (W) 16:28:16
KKS-1 26 May 16:20:14 16:23:24 19° 274° (W) 16:26:36 437.445
ISS 26 May 16:33:20 16:36:41 82° 144° (SE) 16:40:00 145.825
PHONESAT 2.4 26 May 16:36:32 16:38:22 14° 326° (NW) 16:40:12 2401.200-2431.200
RS-15 26 May 17:00:52 17:07:50 20° 280° (W) 17:14:51 29.354- 29.394
ITAMSAT 1 26 May 17:02:38 17:03:44 11° 239° (WSW) 17:04:50 435.822/435.867
STARS 26 May 17:02:40 17:04:40 13° 272° (W) 17:06:42 437.465
YUBILEINY 26 May 17:09:33 17:15:55 23° 261° (W) 17:22:16 435.215
NOAA 18 26 May 17:17:13 17:20:20 15° 88° (E) 17:23:25 137.9125
Cosmos 2504 26 May 17:29:23 17:36:47 54° 270° (W) 17:43:45 435.465 / 435.565
Cubesat XI-IV 26 May 17:34:23 17:37:57 18° 88° (E) 17:41:30 437.490
NOAA 15 26 May 17:35:53 17:40:23 27° 84° (E) 17:44:50 137.62
HORYU 2 26 May 17:38:20 17:42:42 46° 252° (WSW) 17:47:00 437.375
CUBESAT XI-V 26 May 17:39:50 17:44:07 36° 277° (W) 17:48:26 437.345
GOMX 1 26 May 17:43:43 17:45:29 12° 89° (E) 17:47:16 467.674
AO-7 26 May 17:45:50 17:52:51 31° 239° (WSW) 17:59:49 29.400- 29.500
AO-85 26 May 17:55:13 17:58:56 55° 63° (ENE) 18:02:46 145.980
Cosmos 2491 26 May 18:02:47 18:08:48 20° 246° (WSW) 18:14:56 435.465 / 435.565
STRAND 1 26 May 18:11:03 18:15:50 39° 110° (ESE) 18:20:39 437.568
LilacSat-2 26 May 18:11:14 18:14:56 36° 82° (E) 18:18:33 437.200
CUTE-I 26 May 18:20:00 18:25:16 49° 80° (E) 18:30:26 437.470
DOVE 4 26 May 18:40:18 18:44:21 23° 86° (E) 18:48:27 437.250
BRITE-PL 26 May 18:44:52 18:49:38 78° 257° (WSW) 18:54:45 437.365/2234.400
NOAA 18 26 May 18:55:51 19:01:26 66° 253° (WSW) 19:06:54 137.9125
GONETS M04 26 May 19:06:44 19:11:30 15° 118° (ESE) 19:16:13
AUBIESAT-1 26 May 19:08:57 19:10:30 11° 85° (E) 19:12:02 437.475
M-CUBED/EXP-1 PRIME 26 May 19:12:38 19:15:36 16° 83° (E) 19:18:32 437.505
AIST 1 26 May 19:12:54 19:15:23 15° 108° (ESE) 19:17:50
Cubesat XI-IV 26 May 19:13:02 19:18:19 53° 252° (WSW) 19:23:31 437.490
NOAA 15 26 May 19:15:22 19:20:09 35° 249° (WSW) 19:24:54 137.62
HO-68 26 May 19:15:31 19:20:39 20° 87° (E) 19:25:44 435.675
GOMX 1 26 May 19:18:55 19:23:55 74° 256° (WSW) 19:29:11 467.674
CINEMA 3 26 May 19:25:08 19:28:52 20° 87° (E) 19:32:33 145.822/145.860
AO-85 26 May 19:37:55 19:39:45 13° 224° (SW) 19:41:36 145.980
LilacSat-2 26 May 19:46:36 19:48:53 15° 247° (WSW) 19:51:09 437.200
STRAND 1 26 May 19:51:00 19:55:05 23° 275° (W) 19:59:12 437.568
CANX-2 26 May 19:54:52 19:58:53 37° 82° (E) 20:02:50 2200.000
CUTE-I 26 May 20:01:01 20:04:53 20° 244° (WSW) 20:08:44 437.470
SEEDS 26 May 20:01:33 20:05:13 27° 84° (E) 20:08:49 437.485
PRISM 26 May 20:07:16 20:11:23 70° 282° (WNW) 20:15:33 437.425
JUGNU 26 May 20:15:34 20:18:02 13° 1° (N) 20:20:31 437.505
DOVE 4 26 May 20:17:20 20:22:05 40° 252° (WSW) 20:26:58 437.250
Cosmos 2499 26 May 20:17:21 20:22:46 21° 112° (ESE) 20:28:00 435.465 / 435.565
CUTE 1.7 + AOD 2 26 May 20:22:17 20:26:34 70° 80° (E) 20:30:48 437.475
CUBEBUG 2 26 May 20:26:56 20:31:02 27° 85° (E) 20:35:01 437.445
ZACube-1 26 May 20:31:13 20:33:18 13° 90° (E) 20:35:21 437.345
UNISAT 6 26 May 20:36:44 20:38:41 13° 117° (ESE) 20:40:38 437.425
AUBIESAT-1 26 May 20:40:39 20:45:21 70° 250° (WSW) 20:49:58 437.475
TIGRISAT 26 May 20:44:20 20:46:47 14° 116° (ESE) 20:49:16 435.000
M-CUBED/EXP-1 PRIME 26 May 20:45:41 20:50:19 52° 248° (WSW) 20:54:55 437.505
AIST 1 26 May 20:49:02 20:53:10 42° 272° (W) 20:57:18
COMPASS 1 26 May 20:50:37 20:54:51 76° 78° (ENE) 20:59:00 437.405
AAUSAT CUBESAT 2 26 May 20:54:57 20:59:09 67° 79° (E) 21:03:16 437.432
UWE-3 26 May 20:59:07 21:03:36 41° 83° (E) 21:07:57 435.000/436.395/437.385
GONETS M04 26 May 21:00:50 21:09:49 80° 97° (E) 21:18:41
CINEMA 3 26 May 21:01:18 21:06:07 43° 252° (WSW) 21:10:52 145.822/145.860
HO-68 26 May 21:01:41 21:08:53 68° 251° (WSW) 21:16:00 435.675
SO-50 26 May 21:01:46 21:06:10 40° 126° (SE) 21:10:37 436.795
FUNcube-1 26 May 21:08:37 21:12:45 32° 84° (E) 21:16:45 145.935
ANTELSAT 26 May 21:15:31 21:19:34 31° 110° (ESE) 21:23:45 437.575/2403.000
O/OREOS (USA 219) 26 May 21:22:02 21:26:31 70° 72° (ENE) 21:31:06 437.305
CANX-2 26 May 21:31:37 21:34:25 17° 247° (WSW) 21:37:12 2200.000
SEEDS 26 May 21:37:28 21:40:45 22° 249° (WSW) 21:44:01 437.485
DELFI C3 26 May 21:39:52 21:43:37 36° 82° (E) 21:47:18 145.870
PCSat 26 May 21:48:08 21:53:33 90° 254° (WSW) 21:59:02 145.827
Oscar 11 26 May 21:54:45 21:59:07 64° 255° (WSW) 22:03:24 145.826/435.025
CUBEBUG 2 26 May 22:03:25 22:07:34 29° 249° (WSW) 22:11:37 437.445
ZACube-1 26 May 22:05:22 22:09:55 55° 254° (WSW) 22:14:19 437.345
JUGNU 26 May 22:05:25 22:06:09 10° 350° (N) 22:06:53 437.505
SRMSAT 26 May 22:05:27 22:08:05 13° 3° (N) 22:10:43 437.500
Cosmos 2499 26 May 22:09:14 22:16:28 61° 272° (W) 22:23:24 435.465 / 435.565
UNISAT 6 26 May 22:10:12 22:14:45 66° 281° (W) 22:19:28 437.425
POPSAT HIP 1 26 May 22:16:44 22:20:12 25° 111° (ESE) 22:23:44 437.405
QB50P1 26 May 22:17:15 22:20:46 25° 111° (ESE) 22:24:20 145.935-145.965
TIGRISAT 26 May 22:18:26 22:22:55 56° 280° (W) 22:27:34 435.000
QB50P2 26 May 22:18:48 22:22:26 28° 110° (ESE) 22:26:08 145.880/145.840
POLYITAN 1 26 May 22:21:12 22:24:52 28° 110° (ESE) 22:28:36 437.675
BEESAT 3 26 May 22:22:07 22:23:56 13° 71° (ENE) 22:25:46 437.485
HUMSAT D 26 May 22:28:43 22:33:02 64° 79° (E) 22:37:12 437.325/437.525
NANOSAT C BR1 26 May 22:36:09 22:40:07 39° 108° (ESE) 22:44:08 145.865
UWE-3 26 May 22:36:23 22:39:42 19° 246° (WSW) 22:42:58 435.000/436.395/437.385
SO-50 26 May 22:42:49 22:46:23 22° 291° (WNW) 22:49:59 436.795
CUSAT 1 26 May 22:43:45 22:46:00 14° 85° (E) 22:48:00 437.405
FUNcube-1 26 May 22:45:10 22:48:46 23° 248° (WSW) 22:52:17 145.935
AISAT 26 May 22:48:28 22:50:17 12° 89° (E) 22:52:05 437.250
ANTELSAT 26 May 22:52:36 22:56:17 23° 274° (W) 23:00:03 437.575/2403.000
HO-68 26 May 22:52:37 22:55:15 12° 232° (SW) 22:57:53 435.675
GONETS M04 26 May 22:59:44 23:05:28 19° 259° (W) 23:11:13
O/OREOS (USA 219) 26 May 23:04:41 23:06:27 12° 234° (SW) 23:08:15 437.305
UKube-1 26 May 23:05:56 23:07:27 12° 89° (E) 23:08:57 .
JAS-2 26 May 23:10:08 23:13:35 17° 116° (ESE) 23:16:56 435.910
DUCHIFAT 1 26 May 23:15:15 23:19:28 75° 283° (WNW) 23:23:48 145.980
DELFI C3 26 May 23:15:47 23:18:09 15° 247° (WSW) 23:20:29 145.870
ESTCUBE 1 26 May 23:17:50 23:22:06 38° 82° (E) 23:26:18 437.505/2401.250
BEESAT 2 26 May 23:19:36 23:23:11 33° 66° (ENE) 23:26:49 435.950
PCSat 26 May 23:34:49 23:37:43 14° 224° (SW) 23:40:38 145.827
BUGSAT 1 26 May 23:40:26 23:44:30 84° 283° (WNW) 23:48:41 437.445
CUBEBUG 1 26 May 23:44:12 23:48:34 52° 80° (E) 23:52:54 437.445
VELOX 1 26 May 23:46:45 23:51:11 53° 80° (E) 23:55:33 145.980
DX 1 26 May 23:47:12 23:51:28 44° 81° (E) 23:55:41 434.975-435.025
POPSAT HIP 1 26 May 23:52:20 23:55:52 25° 276° (W) 23:59:29 437.405
QB50P1 26 May 23:52:57 23:56:28 25° 275° (W) 00:00:01 145.935-145.965
SRMSAT 26 May 23:54:23 23:56:22 12° 352° (N) 23:58:22 437.500
QB50P2 26 May 23:54:50 23:58:12 22° 275° (W) 00:01:38 145.880/145.840
POLYITAN 1 26 May 23:57:18 00:00:39 22° 275° (W) 00:04:02 437.675
BEESAT 3 26 May 23:57:25 00:01:12 46° 236° (SW) 00:05:02 437.485
DANDE 27 May 00:02:04 00:07:46 54° 83° (E) 00:12:05 436.750
HUMSAT D 27 May 00:06:57 00:08:02 11° 243° (WSW) 00:09:07 437.325/437.525
NANOSAT C BR1 27 May 00:13:25 00:16:00 16° 273° (W) 00:18:37 145.865
50 SAT 27 May 00:17:45 00:21:19 45° 254° (WSW) 00:24:49 437.505
SPROUT 27 May 00:18:45 00:23:02 48° 80° (E) 00:27:14 437.525
Oscar 19 27 May 00:19:09 00:23:48 36° 111° (ESE) 00:28:30 437.125/150
AISAT 27 May 00:22:38 00:27:05 56° 254° (WSW) 00:31:28 437.250
CUSAT 1 27 May 00:24:08 00:27:56 29° 260° (W) 00:31:03 437.405
Gurwin Techsat 1B 27 May 00:30:04 00:33:51 20° 116° (ESE) 00:37:39 435.225
UKube-1 27 May 00:39:30 00:43:49 56° 254° (WSW) 00:48:05 .
TISAT 1 27 May 00:49:15 00:52:59 28° 84° (E) 00:56:40 437.305
JAS-2 27 May 00:52:35 00:58:17 58° 282° (WNW) 01:03:35 435.910
ESTCUBE 1 27 May 00:55:25 00:58:36 19° 247° (WSW) 01:01:45 437.505/2401.250
BEESAT 2 27 May 00:58:05 01:01:06 20° 230° (SW) 01:04:09 435.950
ITAMSAT 1 27 May 00:59:29 01:02:16 15° 118° (ESE) 01:05:03 435.822/435.867
AO-7 27 May 01:01:59 01:05:59 14° 131° (SE) 01:09:59 29.400- 29.500
AIST 2 27 May 01:15:37 01:19:27 37° 65° (ENE) 01:23:20 435.215
CUBEBUG 1 27 May 01:22:06 01:24:23 14° 245° (WSW) 01:26:39 437.445
DX 1 27 May 01:24:34 01:27:15 16° 245° (WSW) 01:29:56 434.975-435.025
VELOX 1 27 May 01:24:51 01:27:10 14° 244° (WSW) 01:29:28 145.980
DANDE 27 May 01:47:47 01:50:26 14° 256° (WSW) 01:52:48 436.750
SPROUT 27 May 01:56:08 01:58:32 15° 245° (WSW) 02:00:54 437.525
Oscar 19 27 May 01:58:59 02:03:09 25° 275° (W) 02:07:23 437.125/150
Gurwin Techsat 1B 27 May 02:08:10 02:13:22 51° 280° (W) 02:18:37 435.225
Cosmos 2491 27 May 02:15:15 02:23:19 37° 107° (ESE) 02:31:18 435.465 / 435.565
YUBILEINY 27 May 02:18:16 02:22:36 15° 104° (ESE) 02:26:56 435.215
SWISSCUBE 27 May 02:22:15 02:27:02 58° 79° (E) 02:31:44 437.505
TISAT 1 27 May 02:25:03 02:28:28 23° 248° (WSW) 02:31:52 437.305
AO-85 27 May 02:27:10 02:31:24 33° 126° (SE) 02:35:56 145.980
ITUPSAT 1 27 May 02:27:34 02:32:22 58° 79° (E) 02:37:04 437.325
ITAMSAT 1 27 May 02:35:51 02:41:06 70° 282° (WNW) 02:46:24 435.822/435.867
AO-7 27 May 02:48:54 02:57:12 68° 112° (ESE) 03:05:31 29.400- 29.500
BEESAT 27 May 02:52:08 02:56:58 76° 254° (WSW) 03:01:45 436.000
AIST 2 27 May 02:54:56 02:58:04 20° 229° (SW) 03:01:13 435.215
HORYU 2 27 May 03:00:41 03:02:31 12° 117° (ESE) 03:04:20 437.375
RS-15 27 May 03:01:34 03:06:54 14° 83° (E) 03:12:08 29.354- 29.394
STARS 27 May 03:17:29 03:18:43 11° 89° (E) 03:19:57 437.465
SWISSCUBE 27 May 04:01:40 04:04:18 15° 243° (WSW) 04:06:54 437.505
ITUPSAT 1 27 May 04:07:01 04:09:40 15° 243° (WSW) 04:12:17 437.325
AO-85 27 May 04:07:42 04:11:46 28° 293° (WNW) 04:16:06 145.980
YUBILEINY 27 May 04:09:04 04:17:56 84° 86° (E) 04:26:53 435.215
KKS-1 27 May 04:11:18 04:15:53 86° 261° (W) 04:20:24 437.445
Cosmos 2491 27 May 04:11:55 04:20:13 46° 268° (W) 04:28:29 435.465 / 435.565
Cosmos 2504 27 May 04:12:24 04:19:14 26° 97° (E) 04:25:52 435.465 / 435.565
MOZHAYETS 4 27 May 04:16:13 04:20:54 80° 77° (ENE) 04:25:29
HORYU 2 27 May 04:34:00 04:38:28 64° 282° (WNW) 04:43:01 437.375
NOAA 18 27 May 04:41:03 04:45:33 26° 115° (ESE) 04:50:06 137.9125
AO-7 27 May 04:43:57 04:50:28 25° 275° (W) 04:57:03 29.400- 29.500
STARS 27 May 04:50:59 04:55:28 62° 255° (WSW) 04:59:52 437.465
LilacSat-2 27 May 04:52:37 04:54:55 15° 113° (ESE) 04:57:15 437.200
NOAA 15 27 May 04:54:05 04:58:53 37° 111° (ESE) 05:03:43 137.62
Cubesat XI-IV 27 May 04:54:18 04:58:41 26° 114° (ESE) 05:03:07 437.490
RS-15 27 May 05:05:30 05:17:20 73° 64° (ENE) 05:28:37 29.354- 29.394
CUBESAT XI-V 27 May 05:37:40 05:42:19 64° 79° (E) 05:46:55 437.345
CUTE-I 27 May 05:39:50 05:45:12 68° 106° (ESE) 05:50:38 437.470
HO-68 27 May 05:44:47 05:48:10 14° 126° (SE) 05:51:34 435.675
DOVE 4 27 May 05:45:35 05:48:04 15° 115° (ESE) 05:50:37 437.250
BRITE-PL 27 May 05:54:35 05:58:52 82° 281° (W) 06:03:05 437.365/2234.400
MOZHAYETS 4 27 May 05:57:03 05:57:20 10° 242° (WSW) 05:57:38
O/OREOS (USA 219) 27 May 05:57:20 05:58:25 11° 127° (SE) 05:59:30 437.305
M-CUBED/EXP-1 PRIME 27 May 05:58:41 06:00:25 13° 122° (ESE) 06:02:12 437.505
Cosmos 2504 27 May 06:03:06 06:11:55 65° 260° (W) 06:20:28 435.465 / 435.565
YUBILEINY 27 May 06:09:51 06:15:50 19° 245° (WSW) 06:21:51 435.215
NOAA 18 27 May 06:20:43 06:25:56 41° 279° (W) 06:31:14 137.9125
STRAND 1 27 May 06:24:46 06:27:39 15° 88° (E) 06:30:30 437.568
LilacSat-2 27 May 06:25:20 06:28:54 35° 277° (W) 06:32:32 437.200
GOMX 1 27 May 06:25:51 06:30:02 83° 280° (W) 06:34:20 467.674
CINEMA 3 27 May 06:26:22 06:28:36 14° 117° (ESE) 06:30:52 145.822/145.860
Cubesat XI-IV 27 May 06:33:30 06:38:31 39° 278° (W) 06:43:36 437.490
NOAA 15 27 May 06:34:24 06:38:42 25° 275° (W) 06:43:03 137.62
PCSat 27 May 06:37:54 06:43:11 49° 122° (ESE) 06:48:26 145.827
CANX-2 27 May 06:46:11 06:49:34 23° 111° (ESE) 06:52:59 2200.000
SEEDS 27 May 06:52:18 06:55:02 17° 113° (ESE) 06:57:46 437.485
CUTE 1.7 + AOD 2 27 May 07:12:56 07:16:57 39° 108° (ESE) 07:21:01 437.475
CUBESAT XI-V 27 May 07:17:10 07:19:07 13° 243° (WSW) 07:21:03 437.345
RS-15 27 May 07:20:14 07:30:39 36° 222° (SW) 07:40:44 29.354- 29.394
DOVE 4 27 May 07:21:22 07:25:21 42° 278° (W) 07:29:33 437.250
CUTE-I 27 May 07:23:01 07:25:42 14° 271° (W) 07:28:24 437.470
CUBEBUG 2 27 May 07:23:48 07:26:56 19° 114° (ESE) 07:30:09 437.445
AUBIESAT-1 27 May 07:25:09 07:28:54 74° 286° (WNW) 07:33:02 437.475
HO-68 27 May 07:27:29 07:34:40 76° 108° (ESE) 07:41:57 435.675
M-CUBED/EXP-1 PRIME 27 May 07:30:50 07:34:25 49° 284° (WNW) 07:38:23 437.505
O/OREOS (USA 219) 27 May 07:33:46 07:38:28 83° 289° (WNW) 07:43:05 437.305
COMPASS 1 27 May 07:39:22 07:43:19 39° 107° (ESE) 07:47:19 437.405
BEESAT 2 27 May 07:40:08 07:42:20 14° 134° (SE) 07:44:31 435.950
AAUSAT CUBESAT 2 27 May 07:43:19 07:47:08 34° 108° (ESE) 07:51:00 437.432
PRISM 27 May 07:51:36 07:54:25 18° 86° (E) 07:57:14 437.425
UWE-3 27 May 07:54:21 07:58:09 27° 111° (ESE) 08:02:04 435.000/436.395/437.385
CINEMA 3 27 May 08:00:52 08:05:09 55° 279° (W) 08:09:42 145.822/145.860
STRAND 1 27 May 08:02:05 08:07:11 59° 253° (WSW) 08:12:12 437.568
FUNcube-1 27 May 08:02:38 08:06:00 21° 113° (ESE) 08:09:27 145.935
Cosmos 2504 27 May 08:04:16 08:06:56 11° 241° (WSW) 08:09:34 435.465 / 435.565
GONETS M04 27 May 08:06:58 08:12:13 18° 102° (ESE) 08:17:29
BEESAT 3 27 May 08:16:10 08:20:03 53° 123° (ESE) 08:23:54 437.485
CANX-2 27 May 08:21:29 08:25:15 29° 276° (W) 08:29:04 2200.000
PCSat 27 May 08:22:12 08:26:11 21° 286° (WNW) 08:30:09 145.827
DELFI C3 27 May 08:24:48 08:27:36 18° 112° (ESE) 08:30:24 145.870
SEEDS 27 May 08:26:22 08:30:23 39° 278° (W) 08:34:27 437.485
Oscar 11 27 May 08:47:07 08:51:30 76° 104° (ESE) 08:55:57 145.826/435.025
CUTE 1.7 + AOD 2 27 May 08:50:10 08:52:56 16° 273° (W) 08:55:42 437.475
Cosmos 2499 27 May 08:51:46 08:57:48 21° 98° (E) 09:03:38 435.465 / 435.565
ZACube-1 27 May 08:58:36 09:03:05 89° 275° (W) 09:07:44 437.345
CUBEBUG 2 27 May 08:58:57 09:03:10 40° 278° (W) 09:07:36 437.445
PHONESAT 2.4 27 May 09:07:38 09:09:41 16° 34° (NNE) 09:11:45 2401.200-2431.200
ISS 27 May 09:11:21 09:14:38 68° 42° (NE) 09:17:57 145.825
AIST 1 27 May 09:15:57 09:20:13 66° 261° (W) 09:24:32
COMPASS 1 27 May 09:16:27 09:19:01 16° 273° (W) 09:21:37 437.405
BEESAT 2 27 May 09:16:35 09:20:31 55° 297° (WNW) 09:24:23 435.950
HUMSAT D 27 May 09:17:59 09:21:55 35° 109° (ESE) 09:25:55 437.325/437.525
HO-68 27 May 09:18:20 09:23:00 18° 272° (W) 09:27:43 435.675
AAUSAT CUBESAT 2 27 May 09:19:51 09:22:42 18° 273° (W) 09:25:35 437.432
PRISM 27 May 09:26:04 09:29:47 32° 251° (WSW) 09:33:29 437.425
UWE-3 27 May 09:30:42 09:34:30 27° 275° (W) 09:38:26 435.000/436.395/437.385
FUNcube-1 27 May 09:37:54 09:41:58 34° 277° (W) 09:46:11 145.935
AIST 2 27 May 09:39:12 09:41:59 17° 133° (SE) 09:44:45 435.215
RS-15 27 May 09:41:37 09:47:53 16° 188° (S) 09:54:04 29.354- 29.394
BEESAT 3 27 May 09:56:02 09:57:15 11° 288° (WNW) 09:58:27 437.485
DELFI C3 27 May 09:58:35 10:02:12 31° 277° (W) 10:05:52 145.870
GONETS M04 27 May 09:59:01 10:07:46 85° 264° (W) 10:16:42
UNISAT 6 27 May 10:04:11 10:08:23 31° 84° (E) 10:12:28 437.425
TIGRISAT 27 May 10:12:01 10:16:23 35° 83° (E) 10:20:36 435.000
ESTCUBE 1 27 May 10:15:41 10:19:36 29° 110° (ESE) 10:23:32 437.505/2401.250
CUBEBUG 1 27 May 10:38:28 10:42:24 34° 109° (ESE) 10:46:21 437.445
DX 1 27 May 10:41:04 10:44:53 31° 110° (ESE) 10:48:45 434.975-435.025
Cosmos 2499 27 May 10:41:19 10:50:05 75° 262° (W) 10:58:26 435.465 / 435.565
VELOX 1 27 May 10:42:17 10:46:21 37° 109° (ESE) 10:50:28 145.980
PHONESAT 2.4 27 May 10:42:57 10:46:06 78° 17° (NNE) 10:49:17 2401.200-2431.200
DANDE 27 May 10:43:06 10:44:58 16° 103° (ESE) 10:46:58 436.750
ANTELSAT 27 May 10:45:02 10:49:49 86° 77° (ENE) 10:54:26 437.575/2403.000
ISS 27 May 10:49:00 10:51:22 18° 205° (SSW) 10:53:45 145.825
50 SAT 27 May 10:53:39 10:57:21 56° 105° (ESE) 11:01:05 437.505
HUMSAT D 27 May 10:54:34 10:57:37 19° 273° (W) 11:00:42 437.325/437.525
CUSAT 1 27 May 10:57:15 11:00:24 65° 278° (W) 11:04:20 437.405
DUCHIFAT 1 27 May 11:02:03 11:05:15 20° 86° (E) 11:08:24 145.980
SPROUT 27 May 11:10:43 11:14:26 29° 110° (ESE) 11:18:12 437.525
SO-50 27 May 11:15:56 11:18:49 17° 70° (ENE) 11:21:44 436.795
AIST 2 27 May 11:16:42 11:20:43 47° 296° (WNW) 11:24:42 435.215
AISAT 27 May 11:17:49 11:22:13 81° 283° (WNW) 11:26:43 437.250
BUGSAT 1 27 May 11:25:04 11:27:52 17° 87° (E) 11:30:38 437.445
UKube-1 27 May 11:31:46 11:36:06 86° 285° (WNW) 11:40:31 .
POPSAT HIP 1 27 May 11:38:02 11:42:22 58° 80° (E) 11:46:37 437.405
QB50P1 27 May 11:38:33 11:42:52 59° 80° (E) 11:47:07 145.935-145.965
TISAT 1 27 May 11:39:58 11:42:44 17° 114° (ESE) 11:45:32 437.305
QB50P2 27 May 11:40:26 11:44:49 67° 77° (ENE) 11:49:06 145.880/145.840
UNISAT 6 27 May 11:41:04 11:44:55 25° 248° (WSW) 11:48:41 437.425
POLYITAN 1 27 May 11:42:53 11:47:16 68° 78° (ENE) 11:51:34 437.675
TIGRISAT 27 May 11:49:11 11:52:48 22° 247° (WSW) 11:56:20 435.000
ESTCUBE 1 27 May 11:52:40 11:56:21 24° 275° (W) 12:00:05 437.505/2401.250
NANOSAT C BR1 27 May 11:57:35 12:01:58 86° 260° (W) 12:06:16 145.865
RS-15 27 May 11:57:57 12:06:17 23° 151° (SSE) 12:14:28 29.354- 29.394
GONETS M04 27 May 12:00:59 12:05:59 16° 243° (WSW) 12:11:02
JAS-2 27 May 12:03:21 12:07:11 18° 86° (E) 12:11:15 435.910
CUBEBUG 1 27 May 12:15:40 12:18:44 19° 274° (W) 12:21:51 437.445
DX 1 27 May 12:17:46 12:21:05 21° 275° (W) 12:24:27 434.975-435.025
PHONESAT 2.4 27 May 12:19:53 12:22:59 50° 183° (S) 12:26:05 2401.200-2431.200
VELOX 1 27 May 12:19:56 12:22:55 18° 274° (W) 12:25:57 145.980
BEESAT 27 May 12:23:00 12:24:09 11° 119° (ESE) 12:25:18 436.000
DANDE 27 May 12:27:00 12:27:35 10° 273° (W) 12:28:10 436.750
Oscar 19 27 May 12:33:50 12:36:36 14° 89° (E) 12:39:21 437.125/150
DUCHIFAT 1 27 May 12:37:06 12:40:59 32° 251° (WSW) 12:44:48 145.980
Cosmos 2499 27 May 12:40:41 12:44:30 13° 243° (WSW) 12:48:16 435.465 / 435.565
SPROUT 27 May 12:47:03 12:50:22 22° 275° (W) 12:53:44 437.525
SO-50 27 May 12:54:45 12:58:55 42° 234° (SW) 13:03:09 436.795
BUGSAT 1 27 May 12:59:21 13:03:21 38° 252° (WSW) 13:07:19 437.445
TISAT 1 27 May 13:14:10 13:18:04 37° 278° (W) 13:22:03 437.305
POPSAT HIP 1 27 May 13:15:49 13:17:36 12° 244° (WSW) 13:19:23 437.405
QB50P1 27 May 13:16:28 13:18:06 12° 244° (WSW) 13:19:44 145.935-145.965
QB50P2 27 May 13:18:57 13:20:00 11° 243° (WSW) 13:21:03 145.880/145.840
POLYITAN 1 27 May 13:21:31 13:22:26 11° 243° (WSW) 13:23:21 437.675
SWISSCUBE 27 May 13:26:41 13:31:23 54° 107° (ESE) 13:36:09 437.505
ITUPSAT 1 27 May 13:32:17 13:37:00 55° 107° (ESE) 13:41:46 437.325
JAS-2 27 May 13:46:56 13:52:29 60° 253° (WSW) 13:58:40 435.910
BEESAT 27 May 13:56:23 14:01:12 82° 283° (WNW) 14:06:06 436.000
PHONESAT 2.4 27 May 13:56:44 13:59:55 77° 168° (SSE) 14:03:06 2401.200-2431.200
ISS 27 May 14:05:41 14:06:43 11° 164° (SSE) 14:07:45 145.825
